Flag for Germany Weather past 2 weeks in Dietzenbach, Hesse, Germany

Now
62 °F

Scattered clouds.


Feels Like: 62 °F
Forecast: 52 / 68 °F
Wind: 2 mph from East

Location: Frankfurt / M-Flughafen

Current Time: Sep 2, 2015 at 10:50:34 AM

Latest Report: Sep 2, 2015 at 10:00 AM


Visibility: 13 mi

Pressure: 30.06 "Hg

Humidity: 79%

Dew point: 55 °F

Location of DietzenbachLocation

Historic Weather in Dietzenbach — Graph

°F

Dietzenbach temperature yesterday

Maximum temperature yesterday: 80 °F (at 1:00 PM)
Minimum temperature yesterday: 59 °F (at 11:00 PM)
Average temperature yesterday: 67 °F

Past Weeks' High & Low Weather Summary

 TemperatureHumidityPressure
High92 °F (Aug 31, 4:00 PM)100% (Aug 29, 6:00 AM)30.29 "Hg (Aug 29, 6:00 AM)
Low50 °F (Aug 19, 6:00 AM)21% (Aug 31, 6:00 PM)29.66 "Hg (Aug 23, 7:00 PM)
Average68 °F68%30.01 "Hg
* Reported Aug 18 9:00 AM — Sep 2 9:00 AM, Dietzenbach, Weather by CustomWeather, © 2015

Note: Actual official high and low records may vary slightly from our data, if they occured in-between our weather recording intervals... More about our weather records

Advertising

Dietzenbach weather history for previous 24 hours

 ConditionsComfort  
Time TempWeatherWind HumidityBarometerVisibility
9:00 AM
Wed, Sep 2
60 °FPartly sunny.1 mph81%30.06 "Hg11 mi
8:00 AM56 °FPartly sunny.2 mph100%30.07 "Hg14 mi
7:00 AM56 °FOvercast.1 mph99%30.06 "Hg11 mi
5:00 AM55 °FOvercast.1 mph100%30.07 "Hg9 mi
4:00 AM56 °FPassing clouds.1 mph100%30.07 "Hg12 mi
3:00 AM55 °FPassing clouds.1 mph100%30.07 "Hg12 mi
2:00 AM57 °FPassing clouds.2 mph95%30.07 "Hg19 mi
1:00 AM57 °FPassing clouds.3 mph97%30.06 "Hg28 mi
11:00 PM
Tue, Sep 1
59 °FPassing clouds.5 mph87%30.04 "Hg28 mi
10:00 PM59 °FPassing clouds.3 mph89%30.03 "Hg28 mi
9:00 PM62 °FPassing clouds.6 mph77%30.01 "Hg28 mi
8:00 PM64 °FPartly sunny.5 mph76%29.98 "Hg25 mi
7:00 PM64 °FOvercast.7 mph78%29.96 "Hg25 mi
6:00 PM64 °FLight rain. Overcast.7 mph81%29.94 "Hg25 mi
5:00 PM64 °FOvercast.6 mph88%29.92 "Hg16 mi
4:00 PM65 °FLight rain. Overcast.3 mph96%29.89 "Hg16 mi
3:00 PM64 °FLight rain. Overcast.6 mph95%29.85 "Hg6 mi
2:00 PM63 °FRain showers. Overcast.10 mph99%29.81 "Hg3 mi
1:00 PM80 °FOvercast.7 mph53%29.74 "Hg19 mi
12:00 PM76 °FPartly sunny.2 mph62%29.76 "Hg19 mi
10:00 AM72 °FOvercast.2 mph73%29.77 "Hg19 mi
Weather by CustomWeather, © 2015

See weather overviewHow to use our weather pages